This is the latest recevied weather packets stored in our database for station/object WB3IGR. If no packets are shown the sender has not sent any weather packets the latest 10 day(s).
| Time | Temp. | Humidity | Pressure | Rain* | Wind** | Luminosity | Snow |
|---|---|---|---|---|---|---|---|
| 1777848237 | 15.56° C | 40% | 1014 hPa | 0 mm | - | 119 W/m² | - |
| 1777847935 | 15.56° C | 41% | 1014 hPa | 0 mm | - | 140 W/m² | - |
| 1777847633 | 15.56° C | 40% | 1013.9 hPa | 0 mm | - | 154 W/m² | - |
| 1777847328 | 16.11° C | 39% | 1013.7 hPa | 0 mm | - | 185 W/m² | - |
| 1777847027 | 15.56° C | 39% | 1013.8 hPa | 0 mm | - | 207 W/m² | - |
| 1777846724 | 14.44° C | 41% | 1013.9 hPa | 0 mm | - | 211 W/m² | - |
| 1777846423 | 15° C | 41% | 1014 hPa | 0 mm | - | 98 W/m² | - |
| 1777846118 | 14.44° C | 42% | 1013.9 hPa | 0 mm | - | 115 W/m² | - |
| 1777845815 | 14.44° C | 41% | 1013.9 hPa | 0 mm | - | 92 W/m² | - |
| 1777845512 | 15° C | 41% | 1014.1 hPa | 0 mm | - | 98 W/m² | - |
| 1777845210 | 15° C | 42% | 1013.9 hPa | 0 mm | - | 289 W/m² | - |
| 1777844907 | 15° C | 41% | 1014 hPa | 0 mm | - | 119 W/m² | - |
| 1777844605 | 14.44° C | 41% | 1013.9 hPa | 0 mm | - | 296 W/m² | - |
| 1777844301 | 14.44° C | 40% | 1013.9 hPa | 0 mm | - | 95 W/m² | - |
| 1777843999 | 15.56° C | 40% | 1013.8 hPa | 0 mm | - | 119 W/m² | - |
| 1777843690 | 16.67° C | 38% | 1013.7 hPa | 0 mm | - | 188 W/m² | - |
| 1777843388 | 16.67° C | 39% | 1013.8 hPa | 0 mm | - | 416 W/m² | - |
| 1777843085 | 16.11° C | 40% | 1013.7 hPa | 0 mm | - | 393 W/m² | - |
| 1777842781 | 16.11° C | 39% | 1013.6 hPa | 0 mm | - | 400 W/m² | - |
| 1777842476 | 16.11° C | 38% | 1013.9 hPa | 0 mm | - | 416 W/m² | - |
| 1777842174 | 16.11° C | 38% | 1013.7 hPa | 0 mm | - | 438 W/m² | - |
| 1777841869 | 16.11° C | 40% | 1013.8 hPa | 0 mm | - | 439 W/m² | - |
| 1777841566 | 15.56° C | 39% | 1013.9 hPa | 0 mm | - | 506 W/m² | - |
| 1777841262 | 16.67° C | 39% | 1013.8 hPa | 0 mm | - | 524 W/m² | - |
| 1777840960 | 16.11° C | 39% | 1013.9 hPa | 0 mm | - | 541 W/m² | - |
* Rain latest hour (hover to see other rain measurements)
** Current wind speed in m/s (hover to see current wind gust speed)